Location: Agendoh
(31.0664°N, 8.9343°W)
Time: 22:42:56
(UTC+00:00)

Lacrosse 5 - Pass Details

Date: 28 June 2022
Orbit: 714 x 724 km, 57.0° (Epoch: 09 March)

Event Time Altitude Azimuth Distance (km) Brightness Sun altitude
Rises 22:16:17 0° 337° (NNW) 3,138 6.4 -25.8°
Reaches altitude 10° 22:19:26 10° 357° (N) 2,213 5.1 -26.2°
Maximum altitude 22:22:51 18° 39° (NE) 1,737 4.0 -26.6°
Enters shadow 22:23:55 17° 55° (NE) 1,787 3.9 -26.8°
